Voltar ao catálogo

FENGYUN 1C DEB

LostSSO
NORAD 31197·DEBRIS·🇨🇳 China

Lançado May 10, 1999 de Taiyuan Satellite Launch Center

Loading…

Próximas Passagens (próximas 24 horas)

TLE

ObsoletoSource: Space-Track

Época: Sep 20, 2022, 12:46 UTC

1 31197U 99025BKB 22263.53196343  .00003480  00000-0  16071-2 0  9997
2 31197  99.0547  16.8466 0058296   0.2995 359.8206 14.20723031797349

Acompanhe FENGYUN 1C DEB em tempo real com AllMySat

Download on the App Store